Time_in_sec,Mx,My,Mz
1326901649.12820482,-0.75413477,-0.38768545,-0.92910397
1326901649.17828846,-0.75280696,-0.39042991,-0.92851102
1326901649.22553277,-0.75348997,-0.38934988,-0.92918301
1326901649.27361321,-0.75245804,-0.39056870,-0.92685950
1326901649.32463670,-0.75231636,-0.38948482,-0.92874223
1326901649.37363148,-0.75206035,-0.38854098,-0.92860955
1326901649.42554522,-0.75274271,-0.38947257,-0.92951840
1326901649.47653270,-0.75162792,-0.38938266,-0.92782718
1326901649.52572560,-0.75263423,-0.38876033,-0.92976856
1326901649.57788849,-0.75295597,-0.38853136,-0.92865789
1326901649.61651921,-0.75178123,-0.38689163,-0.92797846
1326901649.68077874,-0.75312436,-0.39548045,-0.93250924
1326901649.72456717,-0.75318503,-0.38922068,-0.93054819
1326901649.77363372,-0.75303710,-0.39007708,-0.92802387
1326901649.82452822,-0.75332993,-0.38793746,-0.92843121
1326901649.86556101,-0.75288332,-0.38878182,-0.92739707
1326901649.92721152,-0.75362104,-0.39559612,-0.93228418
1326901649.97732425,-0.75293416,-0.39149359,-0.92863595
1326901650.02456522,-0.75334072,-0.38935530,-0.92879838
1326901650.07355642,-0.75146234,-0.38865829,-0.92932957
1326901650.12462950,-0.75191563,-0.38890055,-0.92834818
1326901650.17361903,-0.75345844,-0.38985214,-0.92641646
1326901650.22526574,-0.75411534,-0.38839909,-0.92884690
1326901650.27654934,-0.75360399,-0.38937408,-0.92667866
1326901650.32552814,-0.75239182,-0.38795519,-0.92762738
1326901650.37356806,-0.75316751,-0.38877365,-0.92791450
1326901650.42456579,-0.75265652,-0.38771412,-0.92776889
1326901650.47352934,-0.75237656,-0.39105749,-0.92547101
1326901650.52556682,-0.75324482,-0.38795364,-0.92692029
1326901650.57658386,-0.75285578,-0.38866872,-0.92689431
1326901650.62453985,-0.75227630,-0.38819087,-0.92787051
1326901650.67764091,-0.75404948,-0.39068276,-0.92568940
1326901650.72700191,-0.75294971,-0.38841420,-0.92853290
1326901650.77352571,-0.75192404,-0.38975018,-0.92633438
1326901650.82463026,-0.75374079,-0.38913438,-0.92681324
1326901650.86552405,-0.75134695,-0.38702372,-0.92707551
1326901650.92465329,-0.75177652,-0.39420569,-0.93106478
1326901650.97360468,-0.75250089,-0.39058352,-0.92535555
1326901651.02503061,-0.75275898,-0.38925582,-0.92751253
1326901651.07755065,-0.75248790,-0.38843319,-0.92712712
1326901651.12548852,-0.75192237,-0.38811693,-0.92383546
1326901651.17669106,-0.75280172,-0.38832405,-0.92588967
1326901651.22565198,-0.75331342,-0.38831854,-0.92591733
1326901651.27753568,-0.75219643,-0.38955355,-0.92208290
1326901651.32454085,-0.75205535,-0.38832828,-0.92622596
1326901651.37363505,-0.75306278,-0.38761035,-0.92590874
1326901651.42453313,-0.75262249,-0.38951841,-0.92511851
1326901651.47660232,-0.75348622,-0.38998812,-0.92465973
1326901651.52607417,-0.75180459,-0.38667351,-0.92609853
1326901651.57765555,-0.75338566,-0.38915601,-0.92503673
1326901651.61993337,-0.75214595,-0.38762406,-0.92548269
1326901651.67751002,-0.75323129,-0.39550602,-0.92987901
1326901651.72466969,-0.75211304,-0.38914555,-0.92735296
1326901651.77749634,-0.75196058,-0.38870129,-0.92458647
1326901651.82451463,-0.75257421,-0.38832140,-0.92637950
1326901651.86565113,-0.75270736,-0.38760909,-0.92639166
1326901651.92551780,-0.75307751,-0.39421076,-0.92925221
1326901651.97772574,-0.75196427,-0.39012048,-0.92482775
1326901652.02467465,-0.75255042,-0.38962749,-0.92611802
1326901652.07754397,-0.75124633,-0.38824904,-0.92317045
1326901652.12465429,-0.75245100,-0.38869980,-0.92423642
1326901652.17361736,-0.75314122,-0.38856497,-0.92515320
1326901652.22459292,-0.75090748,-0.38881329,-0.92628616
1326901652.27359724,-0.75165766,-0.38835800,-0.92369395
1326901652.32556558,-0.75252813,-0.38880345,-0.92562050
1326901652.37764025,-0.75146735,-0.38811165,-0.92481506
1326901652.42458463,-0.75268203,-0.38822848,-0.92375010
1326901652.47360539,-0.75275755,-0.38951570,-0.92525136
1326901652.52459788,-0.75155157,-0.38821393,-0.92632508
1326901652.57677984,-0.75069809,-0.38930348,-0.92489070
1326901652.62451768,-0.75256544,-0.38668948,-0.92375463
1326901652.67661023,-0.75385487,-0.38915861,-0.92430890
1326901652.72701144,-0.75161904,-0.38680416,-0.92508346
1326901652.77366829,-0.75408858,-0.38927838,-0.92394412
1326901652.82455468,-0.75171077,-0.38787460,-0.92457885
1326901652.86552405,-0.75131476,-0.38953760,-0.92454576
1326901652.92653632,-0.75282174,-0.39516008,-0.92935729
1326901652.97363353,-0.75402719,-0.38985872,-0.92519194
1326901653.02852464,-0.75122052,-0.38976923,-0.92516667
1326901653.07720280,-0.75196600,-0.38988349,-0.92482954
1326901653.12552929,-0.75195795,-0.38905674,-0.92458385
1326901653.17759228,-0.75216866,-0.38941756,-0.92383957
1326901653.22462845,-0.75129956,-0.38871223,-0.92417419
1326901653.27364159,-0.75316191,-0.38870233,-0.92327058
1326901653.32555079,-0.75237489,-0.38736680,-0.92725402
1326901653.37376714,-0.75108701,-0.38764182,-0.92479783
1326901653.42521524,-0.75313771,-0.38903895,-0.92514968
1326901653.47777319,-0.75268924,-0.38917372,-0.92399490
1326901653.52554774,-0.75185651,-0.38834313,-0.92495996
1326901653.57467461,-0.75288361,-0.38880473,-0.92513764
1326901653.62555099,-0.75332487,-0.38772473,-0.92604762
1326901653.67865539,-0.75194639,-0.38870397,-0.92433465
1326901653.72566557,-0.75172061,-0.38846436,-0.92482626
1326901653.77366948,-0.75351173,-0.38844505,-0.92492300
1326901653.82507515,-0.75140679,-0.38857350,-0.92606372
1326901653.87768745,-0.75291556,-0.38927194,-0.92576367
1326901653.92849255,-0.75230849,-0.38773441,-0.92611825
1326901653.97659588,-0.75162464,-0.38893294,-0.92544538
1326901654.02467418,-0.75216377,-0.38809395,-0.92585689
1326901654.07352924,-0.75225973,-0.38762537,-0.92523777
1326901654.12462282,-0.75184983,-0.38725653,-0.92697549
1326901654.17355394,-0.75200236,-0.38975826,-0.92545992
1326901654.22452641,-0.75327361,-0.38891771,-0.92528337
1326901654.27670145,-0.75204641,-0.38762003,-0.92597938
1326901654.32583094,-0.75186878,-0.38763085,-0.92509115
1326901654.37663698,-0.75235200,-0.38855439,-0.92699343
1326901654.42462873,-0.75254989,-0.38771144,-0.92813969
1326901654.47354054,-0.75265884,-0.38939318,-0.92574894
1326901654.52554584,-0.75157338,-0.38806850,-0.92896312
1326901654.57754135,-0.75228071,-0.38759843,-0.92787492
1326901654.62555313,-0.75158221,-0.38783017,-0.92909080
1326901654.67659473,-0.75273257,-0.39091736,-0.92724842
1326901654.72554350,-0.75289357,-0.38828361,-0.92978591
1326901654.77763891,-0.75299805,-0.38961121,-0.92727190
1326901654.82458043,-0.75221843,-0.38829723,-0.92912185
1326901654.87753415,-0.75158221,-0.38783017,-0.92909080
1326901654.92467165,-0.75264901,-0.38674599,-0.92978352
1326901654.97363329,-0.75190771,-0.38902038,-0.92822140
1326901655.02454591,-0.75248873,-0.39018494,-0.92962521
1326901655.07764292,-0.75292289,-0.38910627,-0.93040931
1326901655.12590289,-0.75135666,-0.38948369,-0.92982012
1326901655.17766285,-0.75358504,-0.38899976,-0.92856306
1326901655.22463465,-0.75365233,-0.38851365,-0.92969972
1326901655.27352047,-0.75285649,-0.38947392,-0.92927349
1326901655.32450390,-0.75132996,-0.38830554,-0.92919934
1326901655.37352133,-0.75277621,-0.38780966,-0.92990845
1326901655.42513204,-0.75269169,-0.38768446,-0.93065786
1326901655.47359610,-0.75204617,-0.38854370,-0.92835772
1326901655.52679157,-0.75181609,-0.38889652,-0.92884487
1326901655.57763195,-0.75331360,-0.38720766,-0.93031818
1326901655.61652017,-0.75272715,-0.38767773,-0.93128741
1326901655.67357039,-0.75224787,-0.39475355,-0.93497741
1326901655.72462583,-0.75122505,-0.39088270,-0.93218803
1326901655.77419686,-0.75287807,-0.38949275,-0.92739177
1326901655.82450175,-0.75163513,-0.38827044,-0.93235397
1326901655.86618805,-0.75186986,-0.38921830,-0.93210894
1326901655.92549205,-0.75316048,-0.39627889,-0.93551797
1326901655.97756553,-0.75315285,-0.38967714,-0.93230045
1326901656.02456474,-0.75220317,-0.38934210,-0.93124747
1326901656.07366204,-0.75067490,-0.38841072,-0.93117154
1326901656.11367607,-0.75259918,-0.38767910,-0.93128049
1326901656.17364049,-0.75125098,-0.39499617,-0.93542397
1326901656.22554374,-0.75260836,-0.39028049,-0.93176478
1326901656.27699661,-0.75231260,-0.38993588,-0.93099815
1326901656.32581234,-0.75237614,-0.38803059,-0.93189359
1326901656.37784505,-0.75150937,-0.38900432,-0.93020827
1326901656.42464066,-0.75081992,-0.38807407,-0.92917347
1326901656.47352767,-0.75212878,-0.38982955,-0.92998487
1326901656.52453113,-0.75232476,-0.38827699,-0.93101043
1326901656.57352066,-0.75228137,-0.38840359,-0.93025410
1326901656.62555075,-0.75239211,-0.38779089,-0.93214715
1326901656.67695737,-0.75178742,-0.38887903,-0.93060070
1326901656.72562504,-0.75144339,-0.38828397,-0.93121392
1326901656.77615833,-0.75343466,-0.38910076,-0.93043697
1326901656.82463336,-0.75175446,-0.38758373,-0.92985493
1326901656.87361979,-0.75080723,-0.38781688,-0.93118286
1326901656.92565060,-0.75249165,-0.38779491,-0.93165040
1326901656.97362041,-0.75243944,-0.38815984,-0.93076640
1326901657.02494860,-0.75209475,-0.38957641,-0.93161654
1326901657.07358909,-0.75206453,-0.38887221,-0.93099225
1326901657.12550092,-0.75275910,-0.38814494,-0.93191344
1326901657.17363715,-0.75052559,-0.38746956,-0.93066806
1326901657.22468972,-0.75349039,-0.38826188,-0.93132448
1326901657.27350903,-0.75343978,-0.38744324,-0.93032336
1326901657.32559085,-0.75092185,-0.38769972,-0.93093884
1326901657.37355852,-0.75154209,-0.38840646,-0.93071628
1326901657.42478228,-0.75299013,-0.38767362,-0.93142712
1326901657.47753334,-0.75223231,-0.38827163,-0.93163311
1326901657.52718830,-0.75201654,-0.38769811,-0.92999375
1326901657.57757711,-0.75094581,-0.38828677,-0.93143809
1326901657.61757517,-0.75220394,-0.38827702,-0.93112946
1326901657.67757106,-0.75169098,-0.39512265,-0.93419164
1326901657.72452140,-0.75158834,-0.38981757,-0.93171304
1326901657.77755737,-0.75339282,-0.38991404,-0.93206072
1326901657.82480335,-0.75262582,-0.38791069,-0.93178236
1326901657.87670398,-0.75196147,-0.38934216,-0.93148547
1326901657.92550731,-0.75269431,-0.38732898,-0.93066049
1326901657.97763681,-0.75254357,-0.38946456,-0.93051183
1326901658.02466249,-0.75282609,-0.38969338,-0.93102753
1326901658.07750750,-0.75173748,-0.38886556,-0.93197876
1326901658.12454820,-0.75178701,-0.38790953,-0.93274122
1326901658.17365456,-0.75090212,-0.38839045,-0.93294120
1326901658.22453928,-0.75238740,-0.39041790,-0.93012017
1326901658.27663183,-0.75342381,-0.38955319,-0.93256700
1326901658.32549524,-0.75348681,-0.38778928,-0.93120205
1326901658.37652826,-0.75104988,-0.38864490,-0.93106461
1326901658.42470670,-0.75094223,-0.38781416,-0.93131566
1326901658.47357082,-0.75197369,-0.38768330,-0.93149775
1326901658.52453780,-0.75210798,-0.38874564,-0.93174857
1326901658.57349420,-0.75292653,-0.38957891,-0.93053174
1326901658.61338806,-0.75156510,-0.38816544,-0.93109578
1326901658.67607689,-0.75134492,-0.39474165,-0.93706256
1326901658.72832584,-0.75134927,-0.38946214,-0.93195367
1326901658.77760410,-0.75223953,-0.38921687,-0.93187785
1326901658.82452297,-0.75170344,-0.38861242,-0.93361044
1326901658.86588025,-0.75157940,-0.38910931,-0.93146646
1326901658.92546821,-0.75273007,-0.39484903,-0.93675995
1326901658.97360778,-0.75178897,-0.38956571,-0.93298078
1326901659.02554083,-0.75212038,-0.38897991,-0.93199861
1326901659.07663965,-0.75142574,-0.38876063,-0.93095857
1326901659.12580991,-0.75248629,-0.38755929,-0.93152624
1326901659.17786860,-0.75168175,-0.38970444,-0.93109125
1326901659.22555423,-0.75258523,-0.38957494,-0.93126643
1326901659.27442336,-0.75353569,-0.38884491,-0.93220145
1326901659.32556152,-0.75071311,-0.38899508,-0.93192261
1326901659.37354493,-0.75107205,-0.38852239,-0.93144321
1326901659.42451525,-0.75224286,-0.38779631,-0.93176252
1326901659.47666502,-0.75319570,-0.38969195,-0.93079644
1326901659.52548766,-0.75112975,-0.38933966,-0.93257028
1326901659.57751560,-0.75167859,-0.38814384,-0.93311030
1326901659.61365438,-0.75215757,-0.38873619,-0.93262994
1326901659.67561984,-0.75262022,-0.39534321,-0.93486786
1326901659.72566581,-0.75198460,-0.39004770,-0.93198383
1326901659.77359772,-0.75096011,-0.38923064,-0.93180877
1326901659.82496834,-0.75178099,-0.38968554,-0.93285400
1326901659.87655020,-0.75261003,-0.38909695,-0.93164766
1326901659.92550039,-0.75186986,-0.38921830,-0.93210894
1326901659.97754359,-0.75208610,-0.38889107,-0.92911053
1326901660.02463675,-0.75227267,-0.38958851,-0.93024534
1326901660.07355642,-0.75119895,-0.38769290,-0.93133038
1326901660.12499356,-0.75071818,-0.38733757,-0.93180901
1326901660.17358541,-0.75184160,-0.39017028,-0.93172419
1326901660.22458649,-0.75189203,-0.38909575,-0.93248755
1326901660.27284813,-0.75179178,-0.38828656,-0.93060511
1326901660.32710767,-0.75131619,-0.38722026,-0.93108898
1326901660.37603045,-0.75125223,-0.38815609,-0.93233413
1326901660.42461777,-0.75236732,-0.38826892,-0.93176591
1326901660.47751713,-0.75199580,-0.38961819,-0.92759436
1326901660.52565861,-0.75213563,-0.38793504,-0.92987299
1326901660.57676363,-0.75201625,-0.38767520,-0.93225318
1326901660.62543273,-0.75125396,-0.38791910,-0.93233591
1326901660.67653751,-0.75233227,-0.38924512,-0.92899579
1326901660.72549033,-0.75207424,-0.38851538,-0.93112081
1326901660.77754140,-0.75257617,-0.38792011,-0.93090099
1326901660.82450962,-0.75257456,-0.38910368,-0.93101811
1326901660.86551404,-0.75263214,-0.38897440,-0.93202627
1326901660.92554641,-0.75180888,-0.39545518,-0.93632948
1326901660.97754049,-0.75152981,-0.38911876,-0.93058515
1326901661.02451444,-0.75123096,-0.38816014,-0.93195641
1326901661.07655907,-0.75148225,-0.38685668,-0.93172807
1326901661.12549114,-0.75063497,-0.38806334,-0.93041873
1326901661.17660260,-0.75223798,-0.38853016,-0.92949778
1326901661.22654009,-0.75144774,-0.38769150,-0.93121827
1326901661.27998614,-0.75241476,-0.38958442,-0.93050408
1326901661.32462692,-0.75200337,-0.38852888,-0.92986172
1326901661.37360311,-0.75135267,-0.38804162,-0.93183827
1326901661.42454123,-0.75159532,-0.38886964,-0.93172008
1326901661.47765994,-0.75123221,-0.38901111,-0.92981672
1326901661.52551246,-0.75239992,-0.38672450,-0.93215507
1326901661.57657480,-0.75145137,-0.38816410,-0.93134069
1326901661.61604404,-0.75045973,-0.38769579,-0.93179256
1326901661.67352104,-0.75152349,-0.39555892,-0.93807060
1326901661.72457576,-0.75154006,-0.38862053,-0.93297398
1326901661.77358627,-0.75175393,-0.39054194,-0.93021065
1326901661.82451391,-0.75361836,-0.38826051,-0.93133140
1326901661.87661195,-0.75126755,-0.38805780,-0.93032736
1326901661.92548800,-0.75193751,-0.38875511,-0.93098623
1326901661.97660208,-0.75334132,-0.38921389,-0.93105870
1326901662.02456999,-0.75251883,-0.38994256,-0.93013060
1326901662.07352257,-0.75158292,-0.38863534,-0.93146998
1326901662.12538791,-0.75181389,-0.38816401,-0.93098366
1326901662.17361546,-0.75279421,-0.39017272,-0.93052042
1326901662.22523236,-0.75281984,-0.38957623,-0.93090254
1326901662.27314186,-0.75174499,-0.38983369,-0.92996413
1326901662.32646823,-0.75205964,-0.38754863,-0.93300951
1326901662.37766480,-0.75265908,-0.38922888,-0.93026870
1326901662.42463136,-0.75224024,-0.38815179,-0.93175989
1326901662.47360802,-0.75267500,-0.38898921,-0.93052226
1326901662.52525282,-0.75159973,-0.38827717,-0.93172443
1326901662.57357907,-0.75283664,-0.38921806,-0.93115699
1326901662.62565517,-0.75175154,-0.38791630,-0.93211174
1326901662.67595983,-0.75252855,-0.38958573,-0.93025917
1326901662.72510338,-0.75141472,-0.38826644,-0.93296969
1326901662.77663255,-0.75185668,-0.39004907,-0.93197691
1326901662.82503486,-0.75247818,-0.38860279,-0.93377781
1326901662.86533213,-0.75178796,-0.38873762,-0.93286103
1326901662.92464852,-0.75399595,-0.39564312,-0.93895644
1326901662.97355843,-0.75222963,-0.39049736,-0.93412763
1326901663.02559137,-0.75086492,-0.38863418,-0.93230987
1326901663.07724357,-0.75270569,-0.38860545,-0.93328798
1326901663.12548399,-0.75166798,-0.38861915,-0.93298090
1326901663.17286110,-0.75283808,-0.38895819,-0.93341815
1326901663.22465110,-0.75239927,-0.38873613,-0.93239194
1326901663.27765346,-0.75349760,-0.38920712,-0.93156928
1326901663.32465529,-0.75167954,-0.38897192,-0.93323010
1326901663.37754464,-0.75190163,-0.38779238,-0.93249720
1326901663.42550611,-0.75156832,-0.38766858,-0.93335873
1326901663.47719979,-0.75238162,-0.38921279,-0.93213660
1326901663.52851176,-0.75208193,-0.38837266,-0.93350703
1326901663.57665873,-0.75299805,-0.38755378,-0.93155390
1326901663.61652732,-0.75138015,-0.38815472,-0.93234104
1326901663.67669821,-0.75188535,-0.39757046,-0.93795049
1326901663.72565007,-0.75223297,-0.38907683,-0.93401229
1326901663.77756524,-0.75268281,-0.38979304,-0.93302739
1326901663.82453513,-0.75201809,-0.38838479,-0.93237382
1326901663.87665725,-0.75201637,-0.38862178,-0.93237209
1326901663.92561650,-0.75170952,-0.38778299,-0.93361658
1326901663.98031402,-0.75301522,-0.39003533,-0.93216503
1326901664.02463818,-0.75152236,-0.38909721,-0.93271863
1326901664.07762790,-0.75143600,-0.38826239,-0.93334740
1326901664.12457752,-0.75064451,-0.38863018,-0.93292558
1326901664.17751741,-0.75255471,-0.38884783,-0.93290162
1326901664.21754575,-0.75219053,-0.39003149,-0.93337572
1326901664.27758408,-0.75154299,-0.39579186,-0.93844658
1326901664.32454777,-0.75054479,-0.38767961,-0.93330348
1326901664.37657046,-0.75327861,-0.38894325,-0.93444616
1326901664.42464209,-0.75266916,-0.38965434,-0.93503588
1326901664.47350025,-0.75303823,-0.38979429,-0.93254447
1326901664.52454877,-0.75020874,-0.38696471,-0.93404341
1326901664.57353663,-0.75186151,-0.38836867,-0.93412274
1326901664.62453175,-0.75091380,-0.38968980,-0.93330926
1326901664.67346478,-0.75214612,-0.38932997,-0.93249965
1326901664.72550058,-0.75210321,-0.38836861,-0.93388474
1326901664.77333522,-0.75230777,-0.38955885,-0.93313432
1326901664.82557297,-0.75060773,-0.38778594,-0.93443573
1326901664.86551404,-0.75192642,-0.39013118,-0.93549454
1326901664.92631221,-0.75292367,-0.39554510,-0.93802071
1326901664.97350812,-0.75284094,-0.39049587,-0.93365860
1326901665.02527046,-0.75247902,-0.38848430,-0.93377870
1326901665.07331419,-0.75139403,-0.38812909,-0.93485230
1326901665.12709951,-0.75183487,-0.38813707,-0.93362087
1326901665.17593288,-0.75320870,-0.38978481,-0.93330687
1326901665.22555113,-0.75254196,-0.38859066,-0.93491095
1326901665.27349401,-0.75214601,-0.38838342,-0.93238074
1326901665.32454300,-0.75286907,-0.38859731,-0.93392444
1326901665.37352610,-0.75246298,-0.38777742,-0.93340623
1326901665.42552328,-0.75068110,-0.38852787,-0.93129659
1326901665.47354198,-0.75264287,-0.38944566,-0.93227458
1326901665.52549005,-0.75196552,-0.38872680,-0.93374926
1326901665.57653761,-0.75264710,-0.38790664,-0.93216008
1326901665.62455535,-0.75251395,-0.38861895,-0.93214792
1326901665.67350268,-0.75324786,-0.38838044,-0.93156159
1326901665.72571611,-0.75112677,-0.38685542,-0.93221098
1326901665.77367616,-0.75360441,-0.39015636,-0.93131733
1326901665.82452154,-0.75113583,-0.38851023,-0.93257642
1326901665.87753272,-0.75195765,-0.38697639,-0.93112528
1326901665.92549181,-0.75087047,-0.38794613,-0.93005574
1326901665.97348857,-0.75321001,-0.39063582,-0.93116719
1326901666.02454281,-0.75262320,-0.38826615,-0.93177974
1326901666.07357669,-0.75089622,-0.38829622,-0.93055671
1326901666.12547398,-0.75234085,-0.38898391,-0.93138289
1326901666.17666316,-0.75448215,-0.38967681,-0.93099147
1326901666.22454810,-0.75207871,-0.38886952,-0.93124408
1326901666.27918410,-0.75267226,-0.38839811,-0.93040079
1326901666.32487702,-0.75199771,-0.38827035,-0.93199700
1326901666.36566663,-0.75154722,-0.38674894,-0.93060267
1326901666.42553520,-0.75404984,-0.39615208,-0.93544132
1326901666.47762537,-0.75288194,-0.38980108,-0.93203396
1326901666.52463007,-0.75142062,-0.39041814,-0.93107218
1326901666.57757449,-0.75148541,-0.38841724,-0.92970902
1326901666.62555313,-0.75196397,-0.38804013,-0.93136919
1326901666.67761302,-0.75300932,-0.38994110,-0.92978054
1326901666.72548747,-0.75175816,-0.38900289,-0.93009621
1326901666.77748656,-0.75357503,-0.38933367,-0.93069392
1326901666.82465506,-0.75117248,-0.38840792,-0.93094736
1326901666.87754321,-0.75215268,-0.38947004,-0.93036520
1326901666.92555761,-0.75007230,-0.38722733,-0.93164945
